ASRTU-1 (AO-123)

Last updated on Fri May 09 2025 00:03:04 GMT+0000 (Coordinated Universal Time)

1 61781U 24199AY 25128.49433092 .00007707 00000+0 28463-3 0 9996 2 61781 97.3599 356.6486 0014543 316.3588 43.6500 15.27924507 71981
UTC large
Height (km)
Speed (km/s)
/
Latitude / Longitude
Inclination (degrees)
Orbital Period (minutes)
Azimuth
Elevation
Range (km)
Doppler Factor

Next 0 passes for location: London (51.5072 / 0.1276)

Sorry there are no passes over London.